GW0143 Weather Reports


time (UTC)temp
F
wind
direction
speed
knots
gust
knots
rain 1hr
in
rain 24hr
in
rain mn
in
humidity
%
barometer
mb
20260510160520 46 309 5.2 7.8 0.00 0.00 0.00 68 1024.8
20260510155540 46 308 2.6 6.1 0.00 0.00 0.00 66 1024.7
20260510154520 47 3 2.6 4.3 0.00 0.00 0.00 67 1024.7
20260510153543 47 150 1.7 3.5 0.00 0.00 0.00 67 1024.7
20260510152523 46 327 1.7 3.5 0.00 0.00 0.00 68 1024.7
20260510151543 45 310 1.7 3.5 0.00 0.00 0.00 70 1024.6
20260510150521 44 200 4.3 7.0 0.00 0.00 0.00 75 1024.5
20260510145520 42 206 1.7 3.5 0.00 0.00 0.00 79 1024.5
20260510144521 42 190 4.3 8.7 0.00 0.00 0.00 80 1024.6
20260510143521 41 182 4.3 5.2 0.00 0.00 0.00 83 1024.6
20260510142541 40 174 4.3 7.0 0.00 0.00 0.00 85 1024.6
20260510141521 40 197 3.5 5.2 0.00 0.00 0.00 85 1024.6
20260510140524 40 190 2.6 3.5 0.00 0.00 0.00 86 1024.6
20260510135521 39 198 3.5 5.2 0.00 0.00 0.00 87 1024.6
20260510134522 39 203 4.3 6.1 0.00 0.00 0.00 87 1024.6
20260510133522 39 189 3.5 5.2 0.00 0.00 0.00 87 1024.6
20260510132556 39 190 4.3 6.1 0.00 0.00 0.00 88 1024.4
20260510131517 38 185 6.1 8.7 0.00 0.00 0.00 88 1024.2
20260510130523 38 195 5.2 7.8 0.00 0.00 0.00 89 1024.1
20260510125523 38 201 6.1 7.8 0.00 0.00 0.00 90 1024.0
20260510124518 37 195 6.1 7.8 0.00 0.00 0.00 92 1023.9
20260510123537 37 200 6.1 7.8 0.00 0.00 0.00 92 1023.9
20260510122538 37 195 6.1 8.7 0.00 0.00 0.00 92 1023.8
20260510121517 37 207 5.2 7.8 0.00 0.00 0.00 91 1023.7
20260510120518 37 208 6.1 7.8 0.00 0.00 0.00 91 1023.7
20260510115518 38 209 5.2 7.8 0.00 0.00 0.00 90 1023.6
20260510114518 38 215 5.2 7.8 0.00 0.00 0.00 90 1023.6
20260510113519 38 209 5.2 7.0 0.00 0.00 0.00 90 1023.6
20260510112518 38 210 5.2 7.8 0.00 0.00 0.00 90 1023.6
20260510111539 38 209 6.1 8.7 0.00 0.00 0.00 89 1023.6
20260510110519 38 208 7.0 9.6 0.00 0.00 0.00 89 1023.4
20260510105539 38 217 6.1 8.7 0.00 0.00 0.00 89 1023.4
20260510104516 37 218 7.0 8.7 0.00 0.00 0.00 89 1023.5
20260510103519 38 222 6.1 9.6 0.00 0.00 0.00 89 1023.4
20260510102521 38 218 7.0 9.6 0.00 0.00 0.00 89 1023.4
20260510101521 38 221 7.0 11.3 0.00 0.00 0.00 89 1023.3
20260510100537 39 222 6.1 9.6 0.00 0.00 0.00 88 1023.3
20260510095517 39 223 6.1 9.6 0.00 0.00 0.00 87 1023.2
20260510094520 39 226 6.1 8.7 0.00 0.00 0.00 86 1023.1
20260510093521 40 228 6.1 8.7 0.00 0.00 0.00 86 1022.9
20260510092522 40 227 6.1 7.8 0.00 0.00 0.00 85 1022.8
20260510091521 40 228 5.2 8.7 0.00 0.00 0.00 85 1022.8
20260510090522 40 216 6.1 7.8 0.00 0.00 0.00 84 1022.5
20260510085541 40 210 6.1 8.7 0.00 0.00 0.00 84 1022.3
20260510084558 41 207 7.8 10.4 0.00 0.00 0.00 83 1022.2
20260510083539 41 205 7.8 10.4 0.00 0.00 0.00 82 1022.2
20260510082519 42 203 6.1 11.3 0.00 0.00 0.00 80 1022.2
20260510081519 42 193 7.0 11.3 0.00 0.00 0.00 79 1022.1
20260510080519 42 157 7.8 10.4 0.00 0.00 0.00 77 1022.1
20260510075539 42 157 7.8 11.3 0.00 0.00 0.00 77 1022.0
20260510074516 42 143 7.8 10.4 0.00 0.00 0.00 76 1022.0
20260510073517 43 164 4.3 9.6 0.00 0.00 0.00 73 1021.9
20260510072520 44 126 4.3 9.6 0.00 0.00 0.00 71 1021.9
20260510071523 44 123 3.5 7.8 0.00 0.00 0.00 70 1021.9
20260510070517 44 145 4.3 8.7 0.00 0.00 0.00 67 1021.9
20260510065517 44 292 4.3 7.0 0.00 0.00 0.00 70 1021.6
20260510064537 43 272 5.2 7.0 0.00 0.00 0.00 71 1021.5
20260510063518 44 279 4.3 7.0 0.00 0.00 0.00 71 1021.3
20260510062518 43 255 3.5 7.0 0.00 0.00 0.00 71 1021.3
20260510061518 44 321 1.7 3.5 0.00 0.00 0.00 72 1021.5
20260510060619 45 341 1.7 4.3 0.00 0.00 0.00 69 1021.2
20260510055518 46 112 2.6 4.3 0.00 0.00 0.00 66 1021.1
20260510054518 47 114 3.5 8.7 0.00 0.00 0.00 63 1020.7
20260510053539 48 85 5.2 10.4 0.00 0.00 0.00 59 1020.0
20260510052519 50 80 4.3 8.7 0.00 0.00 0.00 53 1019.7
20260510051519 52 137 7.0 11.3 0.00 0.00 0.00 42 1019.5
20260510050516 51 112 5.2 11.3 0.00 0.00 0.00 41 1019.2
20260510045519 48 141 4.3 6.1 0.00 0.00 0.00 46 1019.3
20260510044519 48 208 4.3 5.2 0.00 0.00 0.00 51 1018.9
20260510043520 49 181 3.5 5.2 0.00 0.00 0.00 49 1018.8
20260510042520 50 145 4.3 6.1 0.00 0.00 0.00 48 1018.9
20260510041520 51 162 6.1 7.8 0.00 0.00 0.00 43 1018.9
20260510040520 50 168 6.1 7.8 0.00 0.00 0.00 45 1018.9
20260510035520 50 154 4.3 6.1 0.00 0.00 0.00 49 1018.9
20260510034521 51 151 4.3 6.1 0.00 0.00 0.00 46 1018.8
20260510033521 52 153 5.2 7.0 0.00 0.00 0.00 44 1018.7
20260510032518 53 166 8.7 13.0 0.00 0.00 0.00 40 1018.6
20260510031541 52 163 6.1 7.8 0.00 0.00 0.00 42 1018.6
20260510030521 53 167 4.3 7.0 0.00 0.00 0.00 41 1018.6
20260510025522 53 188 3.5 7.0 0.00 0.00 0.00 39 1018.4
20260510024522 54 174 2.6 4.3 0.00 0.00 0.00 36 1018.4
20260510023522 54 199 3.5 7.0 0.00 0.00 0.00 35 1018.1
20260510022522 53 264 3.5 7.0 0.00 0.00 0.00 33 1017.9
20260510021536 53 351 3.5 6.1 0.00 0.00 0.00 39 1017.6
20260510020522 54 75 4.3 5.2 0.00 0.00 0.00 37 1017.2
20260510015523 56 94 2.6 5.2 0.00 0.00 0.00 33 1017.0
20260510014524 57 106 5.2 7.8 0.00 0.00 0.00 30 1016.8
20260510013517 57 107 4.3 9.6 0.00 0.00 0.00 30 1016.7
20260510012517 57 103 5.2 12.2 0.00 0.00 0.00 30 1016.6
20260510011518 58 93 7.0 12.2 0.00 0.00 0.00 28 1016.4
20260510010518 59 90 6.1 12.2 0.00 0.00 0.00 29 1016.3
20260510005521 60 83 11.3 16.5 0.00 0.00 0.00 26 1016.2
20260510004518 61 62 8.7 12.2 0.00 0.00 0.00 23 1016.1
20260510003518 62 46 7.0 12.2 0.00 0.00 0.00 18 1016.0
20260510002518 61 70 11.3 17.4 0.00 0.00 0.00 23 1016.0
20260510001519 63 65 12.2 20.0 0.00 0.00 0.00 20 1015.7
20260510000519 64 6 7.0 12.2 0.00 0.00 0.00 18 1015.6
20260509235519 64 41 5.2 7.8 0.00 0.00 0.00 17 1015.6
20260509234519 65 20 7.0 9.6 0.00 0.00 0.00 16 1015.7
20260509233519 65 11 7.0 10.4 0.00 0.00 0.00 17 1015.7
20260509232519 66 356 9.6 14.8 0.00 0.00 0.00 16 1015.6
20260509231537 65 335 6.1 16.5 0.00 0.00 0.00 15 1015.6
20260509230517 66 334 7.8 12.2 0.00 0.00 0.00 15 1015.7
20260509225558 65 20 5.2 9.6 0.00 0.00 0.00 18 1015.7
20260509224521 64 16 5.2 7.8 0.00 0.00 0.00 17 1015.6
20260509223521 65 36 7.0 9.6 0.00 0.00 0.00 19 1015.7
20260509222518 65 340 6.1 10.4 0.00 0.00 0.00 18 1015.8
20260509221518 65 359 6.1 9.6 0.00 0.00 0.00 17 1015.8
20260509220518 66 351 8.7 14.8 0.00 0.00 0.00 15 1015.7
20260509215539 65 355 6.1 8.7 0.00 0.00 0.00 17 1015.8
20260509214539 65 356 6.1 11.3 0.00 0.00 0.00 17 1015.8
20260509213539 65 360 7.8 15.6 0.00 0.00 0.00 16 1015.9
20260509212519 66 336 8.7 16.5 0.00 0.00 0.00 15 1016.0
20260509211539 67 358 7.8 13.0 0.00 0.00 0.00 15 1016.0
20260509210519 68 354 6.1 10.4 0.00 0.00 0.00 16 1016.3
20260509205520 68 327 7.8 15.6 0.00 0.00 0.00 15 1016.3
20260509204517 67 354 11.3 19.1 0.00 0.00 0.00 14 1016.4
20260509203517 68 347 9.6 22.6 0.00 0.00 0.00 15 1016.5
20260509202520 67 345 11.3 16.5 0.00 0.00 0.00 14 1016.6
20260509201521 67 348 9.6 15.6 0.00 0.00 0.00 15 1016.6
20260509200518 67 352 11.3 20.9 0.00 0.00 0.00 14 1016.7
20260509195538 68 325 7.8 15.6 0.00 0.00 0.00 18 1016.8
20260509194558 67 358 8.7 19.1 0.00 0.00 0.00 18 1016.9
20260509193538 67 350 10.4 15.6 0.00 0.00 0.00 17 1017.0
20260509192519 66 345 8.7 13.9 0.00 0.00 0.00 17 1017.1
20260509191539 65 317 7.0 11.3 0.00 0.00 0.00 20 1017.2
20260509190518 65 360 4.3 13.0 0.00 0.00 0.00 20 1017.4
20260509185539 65 314 7.0 11.3 0.00 0.00 0.00 21 1017.4
20260509184519 64 335 7.0 10.4 0.00 0.00 0.00 21 1017.5
20260509183520 64 318 4.3 8.7 0.00 0.00 0.00 22 1017.6
20260509182516 62 347 5.2 9.6 0.00 0.00 0.00 24 1017.6
20260509181517 62 13 6.1 9.6 0.00 0.00 0.00 26 1017.8
20260509180520 62 354 4.3 7.8 0.00 0.00 0.00 26 1017.8
20260509175520 62 283 5.2 11.3 0.00 0.00 0.00 26 1017.9
20260509174521 62 24 6.1 10.4 0.00 0.00 0.00 26 1017.9
20260509173517 61 38 5.2 12.2 0.00 0.00 0.00 26 1017.8
20260509172521 61 330 4.3 7.8 0.00 0.00 0.00 25 1018.0
20260509171537 61 38 4.3 10.4 0.00 0.00 0.00 26 1018.1
20260509170538 61 30 6.1 12.2 0.00 0.00 0.00 27 1018.1
20260509165521 61 4 5.2 8.7 0.00 0.00 0.00 27 1018.3
20260509164518 60 39 6.1 10.4 0.00 0.00 0.00 26 1018.3
20260509163521 60 20 5.2 7.8 0.00 0.00 0.00 28 1018.2
20260509162518 60 43 4.3 9.6 0.00 0.00 0.00 28 1018.2
20260509161659 59 18 5.2 10.4 0.00 0.00 0.00 28 1018.1